[[{"header":{"parameterUnit":"m.s-1","parameterCategory":1,"la1":30.2991,"la2":30.254,"lo1":-89.0895,"lo2":-89.0444,"dy":0.0017,"dx":0.0017,"nx":28,"ny":28,"refTime":"2025-09-04T21:00:00:Z","depth":0,"parameterNumber":2,"parameterNumberName":"U-component_of_WINDS"},"data":[0,0,0,0,0,0,0,0,0,0,0,0,0,0,0,0,0,0,0,0,0,0,0,0,0,0,0,0,0,0,0,0,0,0,0,0,0,0,0,0,0,0,0,0,0,0,0,0,0,0,0,0,0,0,0,0,0,0,-0.0539,-0.054,0,-0.0641,-0.0642,-0.0643,-0.0636,-0.0635,-0.0633,-0.0632,-0.0739,-0.0743,-0.0747,0,0,0,0,0,0,0,0,0,0,0,0,0,-0.0338,-0.0342,-0.0539,-0.054,-0.0541,-0.0641,-0.0642,-0.0644,-0.0636,-0.0634,-0.0633,-0.0631,-0.0737,-0.0742,-0.0748,0,0,0,0,0,0,0,0,0,0,0,0,0,-0.0431,-0.0343,-0.0539,-0.055,-0.0552,-0.064,-0.0642,-0.0644,-0.0637,-0.0634,-0.0632,-0.063,-0.0736,-0.0742,-0.0748,-0.0834,0,0,-0.0768,-0.0771,0,0,0,0,0,0,0,0,-0.0426,-0.0439,-0.0547,-0.0549,-0.0551,-0.0623,-0.0611,-0.0708,-0.0637,-0.0605,-0.0632,-0.0629,-0.0702,-0.0711,-0.0736,-0.0839,-0.0843,-0.0768,-0.0772,-0.0775,-0.0777,0,0,0,0,0,0,0,-0.042,-0.0434,-0.0579,-0.0548,-0.0551,-0.055,-0.056,-0.0629,-0.0665,-0.0607,-0.0607,-0.0619,-0.0703,-0.073,-0.0738,-0.0845,-0.0768,-0.0774,-0.0778,-0.078,-0.102,-0.1022,0,0,0,0,0,0,-0.041,-0.0429,-0.0576,-0.0582,-0.0482,-0.0555,-0.0567,-0.0603,-0.0664,-0.0671,-0.0621,-0.0618,-0.072,-0.0731,-0.0742,-0.0844,-0.0775,-0.0781,-0.0785,-0.1018,-0.1021,-0.1023,0,0,0,0,0,0,-0.0406,-0.0424,-0.0572,-0.0506,-0.0524,-0.0561,-0.0601,-0.0606,-0.0632,-0.0675,-0.0681,-0.0641,-0.0718,-0.0733,-0.081,-0.0848,-0.0784,-0.079,-0.1015,-0.1019,-0.1022,-0.105,0,0,0,0,0,0,-0.04,-0.0422,-0.0455,-0.0506,-0.0528,-0.0638,-0.0603,-0.0609,-0.0643,-0.064,-0.0695,-0.0702,-0.0718,-0.08,-0.0816,-0.0855,-0.0795,-0.1011,-0.1016,-0.1021,-0.1045,-0.1054,-0.1061,0,0,0,0,0,-0.0393,-0.046,-0.0457,-0.0474,-0.057,-0.064,-0.0653,-0.0669,-0.0646,-0.0679,-0.0706,-0.07,-0.0841,-0.0808,-0.0826,-0.0868,-0.1009,-0.1015,-0.102,-0.1042,-0.1052,-0.1061,0,0,0,0,0,0,-0.0413,-0.0467,-0.0464,-0.0549,-0.059,-0.0639,-0.0681,-0.0679,-0.0728,-0.0724,-0.0743,-0.0755,-0.0832,-0.0858,-0.0821,-0.0952,-0.0922,-0.0932,-0.0932,-0.0942,-0.095,-0.0942,-0.08,0,0,0,0,0,-0.0427,-0.048,-0.0524,-0.0595,-0.0615,-0.0645,-0.0676,-0.0685,-0.0728,-0.0746,-0.0779,-0.0822,-0.0875,-0.091,-0.0962,-0.1049,-0.106,-0.1086,-0.1094,-0.11,-0.1108,-0.1153,-0.1165,-0.1042,-0.1042,-0.1042,0,0,-0.0458,-0.0493,-0.0526,-0.06,-0.0633,-0.0686,-0.066,-0.0719,-0.0758,-0.0755,-0.0829,-0.0855,-0.0904,-0.0985,-0.1023,-0.1009,-0.1144,-0.1107,-0.1112,-0.1117,-0.116,-0.1172,-0.1182,-0.1046,-0.1045,-0.1044,0,0,-0.0539,-0.0572,-0.0634,-0.0666,-0.0716,-0.0734,-0.0749,-0.0798,-0.0814,-0.0889,-0.0886,-0.0935,-0.1027,-0.1061,-0.1091,-0.1183,-0.1179,-0.12,-0.124,-0.1284,-0.1294,-0.1303,-0.1334,-0.1345,-0.1208,-0.1208,-0.1208,0,-0.0571,-0.0651,-0.0666,-0.0724,-0.0756,-0.0754,-0.0816,-0.0847,-0.0912,-0.0934,-0.0917,-0.1031,-0.1065,-0.1153,-0.1175,-0.12,-0.1216,-0.1194,-0.1291,-0.13,-0.1308,-0.1338,-0.135,-0.121,-0.121,-0.1209,-0.1209,0,-0.0686,-0.0742,-0.0786,-0.0846,-0.0883,-0.0943,-0.0966,-0.1002,-0.1006,-0.1027,-0.1101,-0.1141,-0.1199,-0.1221,-0.1228,-0.131,-0.13,-0.1287,-0.1257,-0.1322,-0.135,-0.1362,-0.1213,-0.1212,-0.1211,-0.1211,0,0,-0.0785,-0.085,-0.0866,-0.0892,-0.0945,-0.0988,-0.1048,-0.1104,-0.1133,-0.1177,-0.1227,-0.1304,-0.1292,-0.1325,-0.1335,-0.1374,-0.1442,-0.1356,-0.1358,-0.1369,-0.1533,-0.1541,-0.1554,-0.144,-0.1442,-0.1444,-0.1528,0,-0.087,-0.0974,-0.0988,-0.108,-0.1131,-0.1129,-0.118,-0.1218,-0.1238,-0.1284,-0.1307,-0.136,-0.1341,-0.1361,-0.14,-0.1425,-0.1475,-0.142,-0.1485,-0.1487,-0.1471,-0.1569,-0.1579,-0.1656,-0.154,-0.1541,-0.1543,0,-0.0985,-0.1029,-0.1126,-0.117,-0.1192,-0.1238,-0.1289,-0.1333,-0.1376,-0.1388,-0.1424,-0.1428,-0.1489,-0.1456,-0.154,-0.1502,-0.1529,-0.1546,-0.1549,-0.1555,-0.1518,-0.1576,-0.1682,-0.1693,-0.1561,-0.1559,-0.1558,0,-0.1044,-0.1129,-0.1197,-0.122,-0.1273,-0.1305,-0.1329,-0.137,-0.1401,-0.1447,-0.1467,-0.1519,-0.1548,-0.1588,-0.1605,-0.1581,-0.1687,-0.1657,-0.1698,-0.1697,-0.1719,-0.1718,-0.1829,-0.174,-0.1739,-0.1739,-0.1739,0,-0.1138,-0.1196,-0.1224,-0.1266,-0.1331,-0.1346,-0.141,-0.1433,-0.1469,-0.1515,-0.1517,-0.156,-0.1581,-0.1628,-0.1642,-0.1708,-0.1721,-0.1732,-0.1735,-0.1731,-0.1729,-0.1748,-0.1743,-0.1742,-0.1742,-0.1741,-0.174,0,-0.1215,-0.1236,-0.1309,-0.1353,-0.1366,-0.1412,-0.1449,-0.1489,-0.1508,-0.1566,-0.1581,-0.1611,-0.1665,-0.1687,-0.1755,-0.1764,-0.1839,-0.1838,-0.1824,-0.1824,-0.1863,-0.1859,-0.199,-0.2008,-0.1908,-0.1909,-0.191,0,-0.1272,-0.1317,-0.1365,-0.1395,-0.142,-0.1469,-0.1501,-0.1517,-0.155,-0.1601,-0.1635,-0.1689,-0.1732,-0.1819,-0.1847,-0.1898,-0.1898,-0.194,-0.1906,-0.1899,-0.1896,-0.1893,-0.1896,-0.1946,-0.1948,-0.1948,-0.1949,0,-0.1372,-0.1379,-0.1425,-0.1474,-0.1511,-0.1551,-0.1589,-0.1614,-0.1636,-0.1673,-0.1728,-0.1762,-0.1829,-0.1882,-0.1934,-0.1959,-0.1957,-0.196,-0.1971,-0.1967,-0.1956,-0.1961,-0.184,-0.1957,-0.1956,-0.1955,-0.1955,-0.1955,-0.144,-0.1478,-0.1517,-0.1567,-0.1598,-0.1633,-0.1672,-0.1695,-0.1741,-0.1796,-0.1803,-0.1861,-0.1901,-0.197,-0.1997,-0.2042,-0.2031,-0.2049,-0.2053,-0.2057,-0.2058,-0.195,-0.2052,-0.2052,-0.2052,-0.2052,-0.2052,0,-0.1537,-0.1562,-0.1608,-0.166,-0.1699,-0.1694,-0.1736,-0.1769,-0.1819,-0.1856,-0.1899,-0.196,-0.2011,-0.2043,-0.2094,-0.2124,-0.2124,-0.2137,-0.2134,-0.2139,-0.2066,-0.205,-0.2135,-0.2135,-0.2135,-0.2135,-0.2135,-0.2135,-0.1593,-0.1657,-0.1669,-0.1748,-0.1772,-0.1828,-0.1852,-0.1884,-0.1913,-0.1982,-0.2023,-0.2043,-0.2077,-0.2131,-0.2177,-0.2184,-0.2202,-0.2215,-0.2222,-0.2153,-0.2145,-0.2136,-0.2121,-0.2219,-0.2219,-0.2291,-0.2291,-0.2292]},{"header":{"parameterUnit":"m.s-1","parameterCategory":1,"la1":30.2991,"la2":30.254,"lo1":-89.0895,"lo2":-89.0444,"dy":0.0017,"dx":0.0017,"nx":28,"ny":28,"refTime":"2025-09-04T21:00:00:Z","depth":0,"parameterNumber":3,"parameterNumberName":"V-component_of_WINDS"},"data":[0,0,0,0,0,0,0,0,0,0,0,0,0,0,0,0,0,0,0,0,0,0,0,0,0,0,0,0,0,0,0,0,0,0,0,0,0,0,0,0,0,0,0,0,0,0,0,0,0,0,0,0,0,0,0,0,0,0,-1.2994,-1.2994,0,-1.3016,-1.3016,-1.3017,-1.2977,-1.2976,-1.2975,-1.2974,-1.2996,-1.2998,-1.3,0,0,0,0,0,0,0,0,0,0,0,0,0,-1.2916,-1.2918,-1.2994,-1.2994,-1.2994,-1.3016,-1.3016,-1.3017,-1.2978,-1.2976,-1.2974,-1.2973,-1.2996,-1.2998,-1.3,0,0,0,0,0,0,0,0,0,0,0,0,0,-1.2946,-1.2919,-1.2993,-1.2977,-1.2976,-1.3016,-1.3016,-1.3017,-1.2978,-1.2976,-1.2974,-1.2972,-1.2995,-1.2998,-1.3,-1.3057,0,0,-1.3009,-1.301,0,0,0,0,0,0,0,0,-1.2944,-1.2948,-1.2979,-1.2979,-1.2977,-1.2992,-1.2997,-1.303,-1.2979,-1.2977,-1.2974,-1.2971,-1.2996,-1.2999,-1.3007,-1.3058,-1.3059,-1.3009,-1.3011,-1.3012,-1.3013,0,0,0,0,0,0,0,-1.2942,-1.2947,-1.3002,-1.298,-1.2979,-1.2969,-1.2971,-1.3003,-1.2998,-1.2977,-1.2974,-1.2978,-1.2995,-1.3005,-1.3008,-1.3059,-1.3009,-1.3011,-1.3013,-1.3014,-1.3158,-1.316,0,0,0,0,0,0,-1.2942,-1.2946,-1.3002,-1.3003,-1.2955,-1.2972,-1.2974,-1.2989,-1.2997,-1.2997,-1.2979,-1.2976,-1.3001,-1.3005,-1.3008,-1.3076,-1.3012,-1.3014,-1.3016,-1.3156,-1.3158,-1.3161,0,0,0,0,0,0,-1.2941,-1.2947,-1.3001,-1.2974,-1.298,-1.2975,-1.2993,-1.2991,-1.3,-1.2999,-1.2997,-1.299,-1.3,-1.3004,-1.3045,-1.3076,-1.3016,-1.3018,-1.3153,-1.3157,-1.316,-1.3211,0,0,0,0,0,0,-1.2938,-1.2947,-1.2969,-1.2975,-1.2981,-1.3038,-1.2995,-1.2993,-1.3005,-1.3001,-1.3009,-1.3008,-1.2999,-1.3041,-1.3048,-1.3079,-1.302,-1.315,-1.3155,-1.3159,-1.3207,-1.3216,-1.3223,0,0,0,0,0,-1.2936,-1.2982,-1.297,-1.2977,-1.3008,-1.304,-1.3043,-1.3032,-1.3008,-1.3029,-1.3029,-1.3008,-1.3071,-1.3046,-1.3053,-1.3085,-1.3148,-1.3154,-1.3158,-1.3203,-1.3214,-1.3223,0,0,0,0,0,0,-1.298,-1.2982,-1.2969,-1.3018,-1.3029,-1.3033,-1.306,-1.3044,-1.3061,-1.3056,-1.3041,-1.3043,-1.3087,-1.309,-1.3061,-1.3141,-1.3106,-1.3112,-1.3137,-1.3148,-1.3156,-1.3155,-1.3023,0,0,0,0,0,-1.2995,-1.302,-1.3021,-1.3065,-1.3071,-1.3065,-1.3078,-1.3068,-1.3078,-1.3082,-1.3084,-1.3095,-1.3117,-1.3133,-1.3153,-1.3206,-1.3208,-1.3232,-1.324,-1.3247,-1.3253,-1.3283,-1.3294,-1.3177,-1.3177,-1.3177,0,0,-1.3027,-1.3032,-1.3049,-1.3074,-1.3081,-1.3107,-1.3069,-1.3098,-1.3118,-1.3087,-1.3126,-1.3128,-1.3138,-1.3186,-1.3207,-1.319,-1.3286,-1.3253,-1.3259,-1.3261,-1.3289,-1.33,-1.331,-1.318,-1.318,-1.3179,0,0,-1.3099,-1.3105,-1.3143,-1.315,-1.3162,-1.3157,-1.3166,-1.3173,-1.3173,-1.3212,-1.3189,-1.3212,-1.3251,-1.326,-1.3269,-1.3345,-1.3327,-1.3352,-1.3397,-1.3425,-1.3435,-1.3443,-1.3471,-1.3481,-1.3358,-1.3358,-1.3358,0,-1.3138,-1.3177,-1.3164,-1.3195,-1.3207,-1.318,-1.3218,-1.3226,-1.3244,-1.3253,-1.3233,-1.3281,-1.3287,-1.3336,-1.3355,-1.3363,-1.3373,-1.3352,-1.3434,-1.3442,-1.345,-1.3476,-1.3487,-1.3361,-1.3361,-1.3361,-1.336,0,-1.3225,-1.3252,-1.3281,-1.3299,-1.3314,-1.3349,-1.334,-1.3357,-1.3346,-1.3343,-1.3383,-1.3389,-1.341,-1.3421,-1.341,-1.347,-1.3459,-1.3437,-1.3402,-1.3464,-1.3489,-1.3499,-1.3366,-1.3365,-1.3364,-1.3363,0,0,-1.3326,-1.3336,-1.3347,-1.3355,-1.3365,-1.3387,-1.342,-1.3441,-1.3456,-1.3469,-1.3497,-1.353,-1.351,-1.3521,-1.3511,-1.3536,-1.3597,-1.3511,-1.3511,-1.3528,-1.3664,-1.3681,-1.3693,-1.3585,-1.3586,-1.3588,-1.3663,0,-1.3399,-1.3457,-1.3445,-1.3502,-1.3528,-1.3502,-1.3531,-1.3541,-1.354,-1.3561,-1.3559,-1.3584,-1.3555,-1.3562,-1.3585,-1.3585,-1.3624,-1.3579,-1.3611,-1.3612,-1.361,-1.3706,-1.3724,-1.3795,-1.3673,-1.3674,-1.3675,0,-1.3491,-1.3508,-1.3568,-1.3575,-1.3585,-1.3612,-1.363,-1.3651,-1.3662,-1.3659,-1.3671,-1.3656,-1.3689,-1.3653,-1.3699,-1.3669,-1.3681,-1.3682,-1.3685,-1.3688,-1.3649,-1.3713,-1.3817,-1.3828,-1.369,-1.3689,-1.3688,0,-1.3561,-1.3598,-1.3639,-1.3646,-1.3655,-1.3674,-1.3679,-1.3687,-1.3701,-1.3717,-1.3726,-1.3746,-1.3757,-1.3773,-1.3763,-1.3738,-1.3811,-1.3774,-1.381,-1.3811,-1.3828,-1.3827,-1.3936,-1.3834,-1.3834,-1.3833,-1.3833,0,-1.3644,-1.3681,-1.367,-1.3695,-1.3737,-1.3723,-1.3764,-1.3766,-1.3774,-1.3799,-1.3777,-1.3801,-1.3787,-1.381,-1.3803,-1.3842,-1.3847,-1.3846,-1.3844,-1.3849,-1.3849,-1.3857,-1.3852,-1.3836,-1.3836,-1.3835,-1.3835,0,-1.3729,-1.3722,-1.3765,-1.377,-1.3772,-1.3803,-1.3807,-1.383,-1.3827,-1.3859,-1.3866,-1.3861,-1.3887,-1.3879,-1.3906,-1.3901,-1.3952,-1.3943,-1.3949,-1.3947,-1.3984,-1.3981,-1.4104,-1.4119,-1.4006,-1.4007,-1.4008,0,-1.3783,-1.3811,-1.3819,-1.3835,-1.3841,-1.3866,-1.388,-1.3867,-1.3883,-1.3897,-1.3919,-1.3943,-1.3961,-1.4004,-1.4003,-1.4024,-1.4016,-1.4057,-1.4019,-1.4023,-1.4017,-1.4016,-1.402,-1.4065,-1.4066,-1.4067,-1.4068,0,-1.388,-1.3875,-1.3896,-1.3917,-1.3934,-1.395,-1.3963,-1.3977,-1.3965,-1.3983,-1.401,-1.4024,-1.4053,-1.4077,-1.4096,-1.41,-1.4083,-1.408,-1.409,-1.4096,-1.4098,-1.4098,-1.3971,-1.4078,-1.4077,-1.4076,-1.4076,-1.4075,-1.3951,-1.3976,-1.3986,-1.401,-1.4019,-1.4032,-1.4055,-1.4055,-1.4076,-1.4099,-1.409,-1.412,-1.413,-1.4154,-1.4161,-1.4184,-1.4168,-1.4182,-1.4186,-1.419,-1.4195,-1.4094,-1.4188,-1.4187,-1.4187,-1.4187,-1.4187,0,-1.4048,-1.4053,-1.4076,-1.4096,-1.4115,-1.4097,-1.4111,-1.4128,-1.4155,-1.4166,-1.4185,-1.4215,-1.4238,-1.4239,-1.4261,-1.428,-1.4272,-1.4286,-1.4285,-1.4286,-1.4208,-1.4198,-1.4292,-1.4292,-1.4292,-1.4292,-1.4292,-1.4292,-1.4101,-1.4142,-1.4139,-1.4184,-1.4188,-1.4218,-1.4228,-1.424,-1.4248,-1.4284,-1.4303,-1.4303,-1.431,-1.4332,-1.4353,-1.4352,-1.4362,-1.4379,-1.4376,-1.4302,-1.4292,-1.4282,-1.4273,-1.4381,-1.4381,-1.4453,-1.4453,-1.4454]}]]